Location: Leeds
(37.2390°N, 113.3580°W)
Time: 02:43:12
(UTC-06:00)

ISS - All Passes

Search period start: 21 October 2014 00:00
Search period end: 31 October 2014 00:00
Orbit: 413 x 416 km, 51.6° (Epoch: 20 October)

Date Brightness Start Highest point End Pass type
(mag) Time Alt. Az. Time Alt. Az. Time Alt. Az.
21 Oct - 13:33:07 10° SSE 13:35:05 15° SE 13:37:03 10° E daylight
21 Oct - 15:08:14 10° WSW 15:11:28 48° NW 15:14:44 10° NE daylight
21 Oct - 16:47:46 10° NW 16:48:50 11° NNW 16:49:54 10° N daylight
21 Oct - 20:02:56 10° NNW 20:04:50 14° NNE 20:06:44 10° ENE visible
21 Oct - 21:38:38 10° NW 21:41:59 83° NE 21:45:18 10° SE visible
22 Oct - 14:19:05 10° SW 14:22:24 89° SE 14:25:45 10° NE daylight
22 Oct - 15:57:31 10° WNW 15:59:31 15° NNW 16:01:31 10° NNE daylight
22 Oct - 19:14:38 10° N 19:15:30 11° NNE 19:16:22 10° NNE visible
22 Oct - 20:49:40 10° NW 20:52:54 44° NE 20:56:06 10° ESE visible
22 Oct - 22:27:10 10° W 22:29:19 16° SW 22:31:28 10° S night (unlit)
23 Oct - 13:30:12 10° SSW 13:33:23 45° SE 13:36:35 10° ENE daylight
23 Oct - 15:07:36 10° W 15:10:13 21° NNW 15:12:51 10° NNE daylight
23 Oct - 20:00:47 10° NNW 20:03:42 27° NNE 20:06:36 10° E visible
23 Oct - 21:37:25 10° WNW 21:40:23 30° SW 21:43:20 10° SSE visible
24 Oct - 12:41:40 10° S 12:44:23 24° SE 12:47:07 10° ENE daylight
24 Oct - 14:17:56 10° W 14:20:58 32° NNW 14:24:00 10° NNE daylight
24 Oct - 19:11:59 10° NNW 19:14:24 18° NNE 19:16:49 10° ENE visible
24 Oct - 20:48:03 10° WNW 20:51:21 59° SW 20:54:37 10° SE visible
25 Oct - 11:53:51 10° SSE 11:55:25 13° SE 11:56:58 10° E daylight
25 Oct - 13:28:28 10° WSW 13:31:44 56° NW 13:35:01 10° NE daylight
25 Oct - 15:07:41 10° NW 15:09:01 12° NNW 15:10:22 10° N daylight
25 Oct - 18:23:19 10° N 18:25:01 13° NNE 18:26:43 10° NE daylight
25 Oct - 19:58:52 10° NW 20:02:12 71° NE 20:05:31 10° SE visible
26 Oct - 12:39:14 10° SW 12:42:33 77° SE 12:45:52 10° NE daylight
26 Oct - 14:17:24 10° WNW 14:19:34 16° NNW 14:21:45 10° NNE daylight
26 Oct - 17:35:16 10° NNE 17:35:31 10° NNE 17:35:47 10° NNE daylight
26 Oct - 19:09:48 10° NW 19:12:58 39° NE 19:16:06 10° ESE visible
26 Oct - 20:47:01 10° W 20:49:26 19° SW 20:51:51 10° S visible
27 Oct - 11:50:17 10° SSW 11:53:23 38° SE 11:56:30 10° ENE daylight
27 Oct - 13:27:25 10° W 13:30:09 23° NNW 13:32:54 10° NNE daylight
27 Oct - 18:20:48 10° NNW 18:23:36 24° NNE 18:26:24 10° E daylight
27 Oct - 19:57:16 10° WNW 20:00:20 35° SW 20:03:24 10° SSE visible
28 Oct - 11:01:45 10° S 11:04:16 20° SE 11:06:47 10° E daylight
28 Oct - 12:37:40 10° WSW 12:40:46 36° NW 12:43:53 10° NE daylight
28 Oct - 17:31:54 10° NNW 17:34:09 17° NNE 17:36:24 10° ENE daylight
28 Oct - 19:07:50 10° NW 19:11:09 70° SW 19:14:27 10° SE visible
29 Oct - 10:14:20 10° SE 10:15:10 11° SE 10:15:59 10° ESE daylight
29 Oct - 11:48:07 10° WSW 11:51:25 66° NW 11:54:44 10° NE daylight
29 Oct - 13:27:03 10° NW 13:28:38 13° NNW 13:30:12 10° N daylight
29 Oct - 16:43:09 10° N 16:44:36 12° NNE 16:46:02 10° NE daylight
29 Oct - 18:18:32 10° NW 18:21:51 60° NE 18:25:07 10° ESE daylight
29 Oct - 19:56:50 10° WSW 19:58:08 12° SW 19:59:25 10° SSW visible
30 Oct - 10:58:49 10° SW 11:02:06 63° SE 11:05:24 10° NE daylight
30 Oct - 12:36:43 10° WNW 12:39:03 18° NNW 12:41:23 10° NNE daylight
30 Oct - 17:29:21 10° NNW 17:32:26 34° NNE 17:35:30 10° E daylight
30 Oct - 19:06:20 10° WNW 19:08:58 22° SW 19:11:36 10° S visible
